Tracking 27371 objects as of 8-Jun-2023
HD Live streaming from Space Station
objects crossing your sky now

COSMOS 1058

Track COSMOS 1058 now!
10-day predictions
COSMOS 1058 is classified as:


NORAD ID: 11135
Int'l Code: 1978-109H
Perigee: 1,487.4 km
Apogee: 1,544.5 km
Inclination: 74.0 °
Period: 116.2 minutes
Semi major axis: 7886 km
RCS: 0.7109 m2 (medium)
Launch date: December 5, 1978
Source: Commonwealth of Independent States (former USSR) (CIS)
Launch site: PLESETSK MISSILE AND SPACE COMPLEX (PKMTR)
Your satellite tracking list
Your tracking list is empty




NASA's NSSDC Master Catalog

Two Line Element Set (TLE):
1 11135U 78109H   23158.84731465 -.00000001  00000-0  10606-3 0  9991
2 11135  74.0189  42.6015 0036196  70.2378   2.5480 12.39479628 13703
Source of the keplerian elements: AFSPC